"2022-03-25",00:01,4.502,4.525,4.657,4.68,1.958,4.6,78.08,-5.582,-5.326,273.6,319.9,-46.6,-2.024,-1.731,260.,0,7324.,0.,100000,102.9855,2.446,2.7,1.691,1.89,334.868,1.882,2.06,318.667,0.578,6.99,6.696,6.416,-999,7.83,9.102,5.837,-999.,-999.,7.802,-1.618,-0.49,-1.544,-22.183,0.498,0.571,0.696,0.74,0.487,0.609,0.683,0.735,0.412,,100.,0.,0.,0.,0.465,211.3,211.3
"2022-03-25",00:02,4.486,4.515,4.644,4.648,1.902,4.6,77.51,-5.549,-5.241,273.5,319.9,-46.7,-2.024,-1.918,259.8,0,7814.,0.,100000,102.9884,2.708,2.95,1.684,1.82,332.734,1.966,2.13,318.733,0.578,6.98,6.696,6.413,-999,7.823,9.102,5.811,-999.,-999.,7.808,-1.638,-0.51,-1.56,-22.212,0.498,0.571,0.696,0.74,0.487,0.609,0.683,0.735,0.412,,100.,0.,0.,0.,0.465,211.3,211.3
"2022-03-25",00:03,4.387,4.453,4.526,4.556,1.873,4.493,77.17,-5.549,-5.241,273.6,319.9,-46.6,-2.024,-1.731,259.5,0,7999.,0.,100000,102.9899,2.533,2.638,1.947,2.1,333.,1.955,2.1,319.2,0.578,6.974,6.702,6.413,-999,7.827,9.099,5.798,-999.,-999.,7.818,-1.659,-0.532,-1.576,-22.239,0.498,0.571,0.696,0.74,0.487,0.609,0.683,0.735,0.412,,100.,0.,0.,0.,0.465,211.3,211.3
"2022-03-25",00:04,4.348,4.378,4.462,4.478,1.896,4.4,77.23,-5.56,-5.315,273.6,320.2,-46.8,-2.024,-1.728,259.1,0,7790.,0.,100000,102.9893,2.558,2.7,2.117,2.25,334.333,2.081,2.16,319.6,0.578,6.97,6.709,6.426,-999,7.827,9.109,5.778,-999.,-999.,7.815,-1.68,-0.551,-1.593,-22.265,0.498,0.571,0.696,0.74,0.487,0.609,0.683,0.735,0.412,,100.,0.,0.,0.,0.465,211.3,211.3
"2022-03-25",00:05,4.292,4.351,4.41,4.447,1.84,4.367,77.57,-5.657,-5.432,273.3,320.1,-47.0,-2.024,-1.728,259.,0,7548.,0.,100000,102.9945,2.671,2.763,2.494,2.68,334.2,2.087,2.27,321.8,0.578,6.97,6.706,6.423,-999,7.823,9.103,5.762,-999.,-999.,7.802,-1.7,-0.572,-1.61,-22.292,0.498,0.571,0.696,0.74,0.487,0.609,0.683,0.735,0.412,,100.,0.,0.,0.,0.465,211.3,211.3
"2022-03-25",00:06,4.259,4.279,4.342,4.386,1.617,4.3,78.03,-5.689,-5.486,273.2,320.1,-47.1,-2.024,-1.603,259.1,0,7803.,0.,100000,102.9973,2.846,3.013,2.734,2.92,335.067,1.976,2.04,323.733,0.578,6.967,6.702,6.433,-999,7.83,9.103,5.749,-999.,-999.,7.802,-1.721,-0.592,-1.625,-22.318,0.498,0.571,0.696,0.74,0.487,0.609,0.683,0.735,0.412,,100.,0.,0.,0.,0.465,211.3,211.3
"2022-03-25",00:07,4.233,4.246,4.305,4.344,1.522,4.233,78.58,-5.765,-5.602,273.,319.8,-47.0,-2.024,-1.728,259.1,0,7740.,0.,100000,102.9941,2.813,2.95,2.667,2.82,336.867,1.837,2.06,327.467,0.578,6.967,6.702,6.43,-999,7.823,9.113,5.736,-999.,-999.,7.805,-1.743,-0.613,-1.642,-22.345,0.498,0.571,0.696,0.74,0.487,0.609,0.683,0.735,0.412,,100.,0.,0.,0.,0.465,211.3,211.3
"2022-03-25",00:08,4.276,4.299,4.391,4.39,1.64,4.3,79.02,-5.808,-5.613,272.9,319.,-46.3,-2.024,-1.791,259.2,0,7523.,0.,100000,102.9925,2.692,2.95,2.653,2.82,339.,1.685,1.98,328.8,0.578,6.97,6.702,6.423,-999,7.837,9.113,5.729,-999.,-999.,7.805,-1.763,-0.634,-1.658,-22.371,0.498,0.571,0.696,0.74,0.487,0.609,0.683,0.735,0.412,,100.,0.,0.,0.,0.465,211.3,211.3
"2022-03-25",00:09,4.355,4.374,4.484,4.463,1.699,4.407,79.35,-5.797,-5.571,272.6,318.4,-46.0,-2.024,-1.667,259.4,0,7976.,0.,100000,102.9907,2.538,2.638,2.633,3.,340.133,1.549,1.68,329.201,0.578,6.97,6.706,6.433,-999,7.823,9.106,5.706,-999.,-999.,7.805,-1.784,-0.656,-1.674,-22.394,0.498,0.571,0.695,0.74,0.487,0.609,0.683,0.735,0.412,,100.,0.,0.,0.,0.465,211.3,211.3
"2022-03-25",00:10,4.407,4.433,4.575,4.532,1.765,4.5,79.47,-5.764,-5.517,272.5,317.7,-45.4,-2.024,-1.791,259.3,0,7938.,0.,100000,102.9857,2.538,2.763,2.651,2.87,338.333,1.551,1.62,329.666,0.578,6.967,6.702,6.43,-999,7.83,9.093,5.703,-999.,-999.,7.802,-1.805,-0.676,-1.689,-22.421,0.498,0.57,0.696,0.74,0.487,0.609,0.683,0.735,0.412,,100.,0.,0.,0.,0.465,211.3,211.3
"2022-03-25",00:11,4.558,4.601,4.73,4.638,1.814,4.573,79.24,-5.689,-5.486,272.2,317.7,-45.7,-2.024,-1.667,259.1,0,7592.,0.,100000,102.99,2.767,2.95,2.895,3.18,338.6,1.719,1.8,334.6,0.578,6.964,6.702,6.426,-999,7.837,9.096,5.703,-999.,-999.,7.809,-1.825,-0.696,-1.706,-22.451,0.498,0.571,0.696,0.74,0.487,0.609,0.683,0.735,0.412,,100.,0.,0.,0.,0.465,211.3,211.3
"2022-03-25",00:12,4.683,4.732,4.871,4.756,1.847,4.733,78.43,-5.571,-5.432,272.1,317.6,-45.6,-2.024,-1.667,258.9,0,7275.,0.,100000,102.9915,3.138,3.7,3.145,3.58,338.466,1.949,2.13,336.8,0.578,6.961,6.696,6.433,-999,7.833,9.09,5.693,-999.,-999.,7.805,-1.845,-0.716,-1.723,-22.473,0.498,0.571,0.696,0.74,0.487,0.609,0.683,0.735,0.412,,100.,0.,0.,0.,0.465,211.3,211.3
"2022-03-25",00:13,4.66,4.702,4.888,4.781,1.788,4.8,77.69,-5.55,-5.422,272.5,318.,-45.6,-2.024,-1.854,258.9,0,7630.,0.,100000,102.994,3.496,3.638,3.383,3.6,340.667,2.01,2.17,336.6,0.578,6.97,6.702,6.426,-999,7.833,9.103,5.66,-999.,-999.,7.809,-1.867,-0.737,-1.739,-22.497,0.498,0.571,0.696,0.74,0.487,0.609,0.683,0.735,0.412,,100.,0.,0.,0.,0.465,211.3,211.3
"2022-03-25",00:14,4.637,4.65,4.806,4.757,1.785,4.76,77.61,-5.549,-5.507,272.5,318.6,-46.1,-2.024,-2.041,258.8,0,7853.,0.,100000,102.9936,3.4,3.575,3.385,3.57,344.2,2.15,2.26,337.8,0.578,6.97,6.689,6.426,-999,7.837,9.09,5.657,-999.,-999.,7.802,-1.889,-0.758,-1.755,-22.521,0.498,0.571,0.696,0.74,0.487,0.609,0.683,0.735,0.412,,100.,0.,0.,0.,0.465,211.3,211.3
"2022-03-25",00:15,4.647,4.67,4.735,4.712,1.791,4.7,77.9,-5.539,-5.549,272.5,318.8,-46.3,-2.024,-1.792,258.9,0,7590.,0.,100000,102.995,3.3,3.513,3.187,3.37,347.2,2.042,2.21,340.2,0.578,6.967,6.699,6.43,-999,7.837,9.107,5.621,-999.,-999.,7.802,-1.908,-0.777,-1.77,-22.544,0.498,0.571,0.696,0.74,0.487,0.609,0.683,0.734,0.412,,100.,0.,0.,0.,0.465,211.3,211.3
"2022-03-25",00:16,4.706,4.725,4.734,4.687,1.794,4.7,78.09,-5.506,-5.507,272.4,318.7,-46.3,-2.024,-1.854,259.3,0,7861.,0.,100000,102.9946,3.113,3.325,3.014,3.36,348.734,1.935,2.08,343.8,0.578,6.964,6.696,6.43,-999,7.837,9.077,5.624,-999.,-999.,7.802,-1.93,-0.798,-1.787,-22.572,0.498,0.571,0.696,0.74,0.487,0.609,0.683,0.735,0.411,,100.,0.,0.,0.,0.465,211.3,211.3
"2022-03-25",00:17,4.766,4.814,4.82,4.757,1.801,4.733,77.53,-5.41,-5.454,272.2,318.3,-46.1,-1.975,-1.73,259.4,0,7848.,0.,100000,102.9935,2.85,3.263,3.009,3.37,351.334,1.927,2.15,348.8,0.578,6.957,6.693,6.43,-999,7.84,9.097,5.618,-999.,-999.,7.799,-1.95,-0.818,-1.804,-22.595,0.498,0.571,0.696,0.74,0.487,0.609,0.683,0.735,0.411,,100.,0.,0.,0.,0.465,211.3,211.3
"2022-03-25",00:18,4.861,4.939,4.965,4.881,1.794,4.84,76.79,-5.324,-5.326,272.1,317.8,-45.7,-1.783,-1.979,259.2,0,7999.,0.,100000,102.987,2.55,2.763,3.327,3.54,351.067,1.695,1.92,350.,0.578,6.957,6.692,6.43,-999,7.847,9.104,5.592,-999.,-999.,7.799,-1.973,-0.837,-1.82,-22.618,0.498,0.57,0.696,0.74,0.487,0.609,0.683,0.735,0.412,,100.,0.,0.,0.,0.465,211.3,211.3
"2022-03-25",00:19,4.972,5.057,5.089,4.984,1.771,4.96,75.57,-5.27,-5.22,272.1,317.3,-45.3,-1.735,-2.041,259.3,0,7999.,0.,100000,102.9865,2.425,2.763,3.071,3.23,351.333,1.759,2.1,354.333,0.578,6.941,6.679,6.43,-999,7.844,9.104,5.565,-999.,-999.,7.795,-1.993,-0.859,-1.837,-22.644,0.498,0.57,0.696,0.74,0.487,0.609,0.683,0.735,0.412,,100.,0.,0.,0.,0.465,211.3,211.3
"2022-03-25",00:20,5.035,5.123,5.175,5.079,1.716,5.067,74.68,-5.195,-5.124,272.3,317.4,-45.2,-1.735,-2.104,259.,0,7999.,0.,100000,102.9892,2.554,2.888,3.041,3.23,350.267,1.815,1.97,352.801,0.578,6.938,6.676,6.423,-999,7.84,9.104,5.569,-999.,-999.,7.802,-2.012,-0.878,-1.854,-22.67,0.498,0.571,0.696,0.74,0.487,0.609,0.683,0.735,0.412,,100.,0.,0.,0.,0.465,211.3,211.3
"2022-03-25",00:21,5.054,5.106,5.201,5.096,1.68,5.1,74.22,-5.195,-5.103,272.,317.5,-45.6,-1.735,-2.104,258.8,0,7999.,0.,100000,102.9925,2.371,2.7,2.96,3.14,349.667,1.936,2.14,349.467,0.578,6.931,6.686,6.426,-999,7.844,9.094,5.556,-999.,-999.,7.802,-2.035,-0.898,-1.872,-22.694,0.498,0.571,0.696,0.74,0.487,0.609,0.683,0.735,0.411,,100.,0.,0.,0.,0.465,211.3,211.3
"2022-03-25",00:22,5.028,5.034,5.156,5.085,1.637,5.1,74.33,-5.216,-5.103,271.9,318.1,-46.3,-1.735,-1.917,258.7,0,7999.,0.,100000,102.9939,2.254,2.575,3.011,3.19,351.4,1.809,2.02,350.533,0.578,6.915,6.673,6.423,-999,7.847,9.101,5.552,-999.,-999.,7.802,-2.054,-0.918,-1.889,-22.72,0.498,0.571,0.696,0.74,0.487,0.609,0.683,0.735,0.411,,100.,0.,0.,0.,0.465,211.3,211.3
"2022-03-25",00:23,4.966,4.956,5.102,5.046,1.641,5.053,74.53,-5.291,-5.177,271.8,317.9,-46.2,-1.735,-2.104,258.4,0,7999.,0.,100000,102.9854,2.138,2.513,3.119,3.22,353.867,1.734,1.94,352.867,0.578,6.908,6.676,6.426,-999,7.84,9.104,5.559,-999.,-999.,7.802,-2.076,-0.94,-1.907,-22.746,0.498,0.571,0.696,0.74,0.487,0.609,0.683,0.735,0.411,,100.,0.,0.,0.,0.465,211.3,211.3
"2022-03-25",00:24,4.907,4.89,5.043,4.997,1.66,5.,74.53,-5.41,-5.262,271.6,317.5,-46.0,-1.735,-1.917,258.5,0,7690.,0.,100000,102.9922,2.325,2.575,3.276,3.36,352.733,1.673,1.92,353.867,0.578,6.905,6.676,6.426,-999,7.854,9.098,5.523,-999.,-999.,7.805,-2.099,-0.958,-1.923,-22.77,0.498,0.571,0.696,0.74,0.487,0.609,0.683,0.735,0.411,,100.,0.,0.,0.,0.465,211.3,211.3
"2022-03-25",00:25,4.874,4.828,4.986,4.955,1.673,4.927,74.87,-5.528,-5.358,271.9,317.4,-45.7,-1.975,-1.855,258.6,0,7765.,0.,100000,102.9908,2.442,2.7,3.18,3.32,351.334,1.697,1.87,357.734,0.578,6.905,6.67,6.416,-999,7.847,9.098,5.513,-999.,-999.,7.802,-2.117,-0.98,-1.94,-22.797,0.497,0.571,0.696,0.739,0.487,0.609,0.683,0.735,0.411,,100.,0.,0.,0.,0.465,211.3,211.3
"2022-03-25",00:26,4.779,4.723,4.893,4.886,1.65,4.847,75.44,-5.679,-5.454,272.1,317.8,-45.9,-2.024,-1.917,258.5,0,7679.,0.,100000,102.9877,2.688,3.2,3.297,3.6,349.666,1.701,2.02,358.937,0.578,6.898,6.666,6.42,-999,7.84,9.104,5.5,-999.,-999.,7.805,-2.139,-1.,-1.958,-22.82,0.497,0.57,0.696,0.74,0.487,0.609,0.683,0.735,0.411,,100.,0.,0.,0.,0.465,211.3,211.3
"2022-03-25",00:27,4.657,4.608,4.76,4.769,1.634,4.68,76.09,-5.797,-5.528,271.9,317.6,-46.0,-2.024,-1.98,258.3,0,7408.,0.,100000,102.9881,3.167,3.513,3.365,3.67,351.6,1.629,1.81,3.397,0.578,6.898,6.663,6.42,-999,7.84,9.098,5.484,-999.,-999.,7.802,-2.16,-1.02,-1.975,-22.846,0.498,0.571,0.696,0.74,0.487,0.609,0.683,0.735,0.411,,100.,0.,0.,0.,0.465,211.3,211.3
"2022-03-25",00:28,4.565,4.516,4.636,4.651,1.605,4.52,76.56,-5.894,-5.624,272.1,317.7,-45.9,-2.024,-1.731,258.3,0,7740.,0.,100000,102.9899,3.317,3.513,3.439,3.95,352.933,1.741,1.87,2.667,0.578,6.905,6.656,6.43,-999,7.854,9.098,5.474,-999.,-999.,7.802,-2.181,-1.041,-1.993,-22.87,0.498,0.571,0.696,0.74,0.487,0.609,0.683,0.735,0.411,,100.,0.,0.,0.,0.465,211.3,211.3
"2022-03-25",00:29,4.464,4.414,4.527,4.541,1.595,4.367,77.02,-5.98,-5.741,272.1,317.4,-45.5,-2.024,-1.606,258.4,0,7999.,0.,100000,102.9953,3.25,3.388,3.292,3.77,353.,1.657,2.03,358.734,0.578,6.898,6.666,6.43,-999,7.854,9.101,5.461,-999.,-999.,7.805,-2.204,-1.061,-2.011,-22.895,0.498,0.57,0.696,0.74,0.487,0.609,0.683,0.735,0.411,,100.,0.,0.,0.,0.465,211.3,211.3
"2022-03-25",00:30,4.323,4.234,4.403,4.431,1.519,4.247,77.74,-6.077,-5.826,272.,317.3,-45.6,-2.216,-1.233,258.2,0,7522.,0.,100000,102.9936,3.179,3.388,3.133,3.33,351.866,1.815,2.09,354.927,0.578,6.905,6.67,6.423,-999,7.864,9.098,5.458,-999.,-999.,7.802,-2.225,-1.08,-2.027,-22.921,0.498,0.57,0.696,0.74,0.487,0.609,0.684,0.735,0.411,,100.,0.,0.,0.,0.465,211.3,211.3
"2022-03-25",00:31,4.241,4.168,4.294,4.291,1.559,4.113,78.15,-6.13,-5.868,272.3,317.7,-45.7,-2.313,-1.295,258.6,0,7082.,0.,100000,102.9963,2.954,3.075,2.984,3.27,349.333,1.661,2.04,350.602,0.578,6.902,6.666,6.423,-999,7.861,9.094,5.448,-999.,-999.,7.805,-2.246,-1.101,-2.045,-22.946,0.498,0.57,0.696,0.739,0.487,0.609,0.683,0.735,0.411,,100.,0.,0.,0.,0.465,211.3,211.3
"2022-03-25",00:32,4.395,4.405,4.398,4.354,1.565,4.193,77.67,-6.109,-5.868,272.3,317.3,-45.2,-2.313,-1.42,258.7,0,7149.,0.,100000,102.9925,2.888,3.2,2.88,3.08,347.798,1.855,2.06,343.267,0.578,6.905,6.673,6.427,-999,7.861,9.098,5.445,-999.,-999.,7.806,-2.267,-1.119,-2.064,-22.972,0.498,0.57,0.696,0.74,0.487,0.609,0.683,0.735,0.411,,100.,0.,0.,0.,0.465,211.3,211.3
"2022-03-25",00:33,4.592,4.654,4.614,4.534,1.614,4.46,76.45,-6.066,-5.847,272.1,316.9,-45.0,-2.313,-1.606,258.6,0,7692.,0.,100000,102.9944,2.988,3.2,2.833,3.01,344.333,2.006,2.16,339.4,0.578,6.892,6.67,6.433,-999,7.86,9.094,5.422,-999.,-999.,7.809,-2.287,-1.14,-2.082,-22.996,0.498,0.57,0.696,0.74,0.487,0.609,0.683,0.735,0.411,,100.,0.,0.,0.,0.465,211.3,211.3
"2022-03-25",00:34,4.651,4.72,4.715,4.611,1.588,4.58,75.98,-5.926,-5.751,272.1,316.6,-44.7,-2.313,-1.665,258.7,0,7999.,0.,100000,102.9907,2.879,3.2,2.719,2.97,343.599,1.846,2.14,336.134,0.578,6.889,6.68,6.42,-999,7.857,9.094,5.418,-999.,-999.,7.812,-2.309,-1.16,-2.1,-23.021,0.498,0.57,0.696,0.74,0.487,0.609,0.683,0.735,0.411,,100.,0.,0.,0.,0.465,211.3,211.3
"2022-03-25",00:35,4.7,4.759,4.809,4.7,1.526,4.673,75.7,-5.765,-5.56,272.,316.9,-45.1,-2.216,-1.79,258.7,0,7999.,0.,100000,102.991,2.863,3.138,2.72,3.09,345.724,2.01,2.39,334.601,0.578,6.886,6.673,6.44,-999,7.874,9.101,5.412,-999.,-999.,7.812,-2.33,-1.181,-2.116,-23.046,0.497,0.571,0.696,0.74,0.487,0.609,0.683,0.735,0.411,,100.,0.,0.,0.,0.465,211.3,211.3
"2022-03-25",00:36,4.798,4.871,4.968,4.813,1.48,4.807,75.13,-5.55,-5.369,272.,317.2,-45.4,-2.024,-1.79,258.8,0,7999.,0.,100000,102.9924,3.021,3.325,2.886,3.12,341.668,1.991,2.25,332.2,0.578,6.889,6.683,6.433,-999,7.881,9.094,5.405,-999.,-999.,7.812,-2.352,-1.2,-2.136,-23.069,0.497,0.57,0.696,0.739,0.487,0.609,0.683,0.735,0.411,,100.,0.,0.,0.,0.465,211.3,211.3
"2022-03-25",00:37,4.808,4.871,4.938,4.814,1.516,4.827,75.12,-5.334,-5.167,271.9,318.2,-46.5,-2.024,-1.977,258.6,0,7817.,0.,100000,102.9947,2.958,3.325,2.821,3.11,339.934,2.109,2.36,335.733,0.578,6.886,6.68,6.433,-999,7.874,9.094,5.389,-999.,-999.,7.812,-2.373,-1.222,-2.153,-23.095,0.498,0.57,0.696,0.74,0.487,0.609,0.683,0.735,0.411,,100.,0.,0.,0.,0.465,211.3,211.3
"2022-03-25",00:38,4.835,4.887,4.965,4.841,1.559,4.84,74.59,-5.162,-5.071,272.,318.7,-46.8,-1.975,-1.915,258.5,0,7204.,0.,100000,102.9955,2.854,3.138,2.779,3.05,340.734,1.995,2.42,335.533,0.578,6.882,6.68,6.427,-999,7.874,9.094,5.372,-999.,-999.,7.816,-2.393,-1.24,-2.172,-23.12,0.497,0.571,0.696,0.74,0.487,0.609,0.683,0.735,0.411,,100.,0.,0.,0.,0.465,211.3,211.3
"2022-03-25",00:39,5.018,5.097,5.191,5.013,1.559,5.067,73.88,-5.098,-5.028,271.6,318.5,-47.0,-1.735,-2.102,258.3,0,7920.,0.,100000,102.9936,2.571,2.888,2.651,2.92,338.734,1.73,1.88,335.067,0.578,6.892,6.673,6.423,-999,7.881,9.101,5.376,-999.,-999.,7.812,-2.414,-1.26,-2.19,-23.143,0.497,0.571,0.696,0.74,0.487,0.609,0.683,0.735,0.411,,100.,0.,0.,0.,0.465,211.3,211.3
"2022-03-25",00:40,5.094,5.179,5.318,5.124,1.595,5.2,73.61,-5.098,-5.007,271.5,318.,-46.6,-1.735,-1.978,258.1,0,7655.,0.,100000,102.9906,2.454,2.95,2.442,2.68,333.799,1.577,1.7,324.799,0.578,6.886,6.68,6.43,-999,7.877,9.094,5.363,-999.,-999.,7.812,-2.435,-1.28,-2.209,-23.168,0.497,0.571,0.696,0.74,0.487,0.609,0.683,0.736,0.411,,100.,0.,0.,0.,0.465,211.3,211.3
"2022-03-25",00:41,5.015,5.071,5.215,5.117,1.624,5.14,73.97,-5.205,-5.082,271.6,317.7,-46.2,-1.735,-2.102,257.9,0,7679.,0.,100000,102.9881,2.45,2.575,2.432,2.61,337.001,1.707,1.8,320.133,0.578,6.886,6.677,6.427,-999,7.881,9.094,5.363,-999.,-999.,7.809,-2.456,-1.299,-2.227,-23.191,0.497,0.571,0.696,0.74,0.487,0.609,0.683,0.736,0.411,,100.,0.,0.,0.,0.465,211.3,211.3
"2022-03-25",00:42,4.917,4.946,5.091,5.055,1.634,5.033,74.25,-5.345,-5.135,271.6,317.8,-46.4,-1.831,-1.729,257.6,0,7883.,0.,100000,102.9917,2.542,2.888,2.443,2.57,336.8,1.742,1.88,320.533,0.578,6.882,6.68,6.427,-999,7.888,9.091,5.343,-999.,-999.,7.816,-2.477,-1.32,-2.245,-23.214,0.497,0.57,0.696,0.74,0.487,0.609,0.683,0.736,0.411,,100.,0.,0.,0.,0.465,211.3,211.3
"2022-03-25",00:43,4.798,4.831,4.962,4.956,1.641,4.907,74.47,-5.539,-5.23,271.7,318.1,-46.7,-2.024,-1.854,257.7,0,7654.,0.,100000,102.9897,2.521,2.7,2.639,2.91,337.667,1.759,1.88,320.067,0.578,6.863,6.673,6.427,-999,7.878,9.091,5.33,-999.,-999.,7.799,-2.497,-1.341,-2.264,-23.238,0.497,0.571,0.696,0.74,0.487,0.609,0.683,0.736,0.411,,100.,0.,0.,0.,0.465,211.3,211.3
"2022-03-25",00:44,4.707,4.72,4.867,4.874,1.641,4.8,74.63,-5.678,-5.294,271.6,317.9,-46.7,-2.024,-1.73,257.5,0,7999.,0.,100000,102.9918,2.442,2.638,2.391,2.64,333.266,1.805,1.89,316.334,0.578,6.856,6.673,6.427,-999,7.884,9.098,5.327,-999.,-999.,7.803,-2.518,-1.361,-2.282,-23.259,0.497,0.571,0.696,0.74,0.487,0.609,0.683,0.735,0.411,,100.,0.,0.,0.,0.465,211.3,211.3
"2022-03-25",00:45,4.579,4.592,4.758,4.803,1.562,4.753,75.01,-5.807,-5.358,271.5,317.9,-46.8,-2.024,-1.481,257.4,0,7999.,0.,100000,102.9863,2.475,2.7,2.41,2.7,330.,1.837,1.91,315.,0.578,6.863,6.683,6.427,-999,7.871,9.091,5.313,-999.,-999.,7.809,-2.54,-1.381,-2.3,-23.281,0.497,0.571,0.696,0.74,0.487,0.609,0.683,0.735,0.411,,100.,0.,0.,0.,0.465,211.3,211.3
"2022-03-25",00:46,4.385,4.382,4.517,4.604,1.395,4.58,75.53,-5.894,-5.411,271.2,318.3,-47.6,-2.168,-1.73,257.,0,7485.,0.,100000,102.9875,2.554,2.7,2.386,2.55,329.467,1.869,1.98,313.867,0.578,6.856,6.68,6.423,-999,7.884,9.094,5.287,-999.,-999.,7.803,-2.561,-1.401,-2.319,-23.303,0.497,0.57,0.696,0.74,0.486,0.609,0.683,0.735,0.411,,100.,0.,0.,0.,0.465,211.3,211.3
"2022-03-25",00:47,4.227,4.211,4.334,4.43,1.202,4.407,76.09,-5.937,-5.464,271.2,318.4,-47.7,-2.313,-1.792,257.,0,7919.,0.,100000,102.9895,2.683,3.013,2.43,2.61,331.,1.913,2.01,315.533,0.578,6.843,6.674,6.44,-999,7.884,9.094,5.271,-999.,-999.,7.806,-2.581,-1.422,-2.337,-23.322,0.497,0.57,0.695,0.74,0.486,0.609,0.683,0.735,0.411,,100.,0.,0.,0.,0.465,211.3,211.3
"2022-03-25",00:48,4.109,4.1,4.19,4.298,1.058,4.273,76.81,-5.99,-5.496,271.2,318.7,-48.0,-2.313,-1.419,257.,0,7999.,0.,100000,102.9912,2.754,2.95,2.537,2.81,329.867,1.906,2.11,316.6,0.578,6.85,6.684,6.443,-999,7.878,9.094,5.264,-999.,-999.,7.799,-2.601,-1.442,-2.355,-23.34,0.497,0.57,0.696,0.74,0.486,0.61,0.683,0.735,0.411,,100.,0.,0.,0.,0.465,211.3,211.3
"2022-03-25",00:49,3.995,4.001,4.097,4.196,0.94,4.14,77.57,-6.055,-5.571,271.,318.6,-48.1,-2.313,-1.54,256.7,0,7715.,0.,100000,102.9919,2.938,3.2,2.797,3.15,331.333,2.075,2.24,318.133,0.578,6.843,6.677,6.43,-999,7.881,9.098,5.258,-999.,-999.,7.796,-2.619,-1.463,-2.374,-23.357,0.497,0.571,0.696,0.74,0.486,0.609,0.683,0.735,0.411,,100.,0.,0.,0.,0.465,211.3,211.3
"2022-03-25",00:50,3.919,3.929,3.998,4.119,0.907,4.007,78.17,-6.033,-5.602,271.1,319.,-48.3,-2.313,-1.665,256.5,0,7336.,0.,100000,102.986,3.096,3.325,2.947,3.11,331.467,2.077,2.26,319.8,0.578,6.843,6.673,6.43,-999,7.881,9.094,5.255,-999.,-999.,7.799,-2.64,-1.483,-2.392,-23.375,0.497,0.57,0.695,0.74,0.486,0.609,0.683,0.735,0.411,,100.,0.,0.,0.,0.465,211.3,211.3
"2022-03-25",00:51,3.88,3.906,3.982,4.074,0.865,3.927,78.59,-6.012,-5.624,270.9,319.2,-48.7,-2.313,-1.79,256.4,0,7901.,0.,100000,102.9851,3.113,3.45,3.054,3.29,332.533,2.215,2.34,320.,0.578,6.847,6.677,6.427,-999,7.878,9.091,5.255,-999.,-999.,7.789,-2.661,-1.502,-2.413,-23.391,0.497,0.57,0.696,0.74,0.487,0.609,0.683,0.736,0.411,,100.,0.,0.,0.,0.465,211.3,211.3
"2022-03-25",00:52,3.886,3.919,3.97,4.043,0.852,3.9,78.89,-5.937,-5.698,270.7,319.4,-48.9,-2.313,-1.479,256.2,0,7812.,0.,100000,102.9878,3.163,3.263,2.934,3.1,331.4,2.317,2.5,319.933,0.578,6.853,6.667,6.433,-999,7.868,9.098,5.255,-999.,-999.,7.793,-2.681,-1.522,-2.431,-23.407,0.497,0.57,0.696,0.74,0.487,0.609,0.683,0.736,0.411,,100.,0.,0.,0.,0.465,211.3,211.3
"2022-03-25",00:53,3.89,3.919,3.974,4.033,0.858,3.9,79.19,-5.894,-5.741,270.6,319.8,-49.4,-2.024,-1.728,256.,0,7260.,0.,100000,102.9945,3.179,3.325,2.987,3.29,330.132,2.403,2.58,320.533,0.578,6.843,6.667,6.447,-999,7.878,9.088,5.251,-999.,-999.,7.806,-2.701,-1.541,-2.448,-23.425,0.497,0.571,0.696,0.74,0.486,0.609,0.683,0.736,0.411,,100.,0.,0.,0.,0.465,211.3,211.3
"2022-03-25",00:54,3.87,3.896,3.968,4.031,0.852,3.9,79.45,-5.807,-5.741,270.3,320.,-49.8,-2.024,-1.663,255.8,0,7476.,0.,100000,102.9992,3.492,3.7,3.13,3.4,329.8,2.458,2.71,319.133,0.578,6.86,6.67,6.433,-999,7.874,9.101,5.251,-999.,-999.,7.79,-2.72,-1.562,-2.469,-23.44,0.497,0.57,0.696,0.74,0.486,0.609,0.683,0.736,0.411,,100.,0.,0.,0.,0.465,211.3,211.3
"2022-03-25",00:55,3.794,3.814,3.886,3.978,0.852,3.84,79.83,-5.775,-5.741,270.1,319.9,-49.8,-2.024,-1.725,255.5,0,7476.,0.,100000,102.9996,3.438,3.575,3.289,3.59,331.467,2.54,2.76,320.533,0.578,6.86,6.674,6.437,-999,7.858,9.101,5.238,-999.,-999.,7.803,-2.74,-1.582,-2.486,-23.456,0.497,0.571,0.696,0.74,0.487,0.609,0.683,0.736,0.411,,100.,0.,0.,0.,0.465,211.3,211.3
"2022-03-25",00:56,3.732,3.752,3.83,3.903,0.858,3.787,80.3,-5.732,-5.826,269.8,320.2,-50.3,-2.024,-1.601,255.5,0,7374.,0.,100000,103.0016,3.375,3.513,3.305,3.76,335.4,2.419,2.63,322.533,0.578,6.864,6.681,6.447,-999,7.858,9.112,5.232,-999.,-999.,7.803,-2.76,-1.601,-2.503,-23.471,0.497,0.57,0.696,0.74,0.486,0.609,0.683,0.736,0.411,,100.,0.,0.,0.,0.465,211.3,211.3
"2022-03-25",00:57,3.739,3.768,3.819,3.877,0.885,3.713,80.5,-5.689,-5.847,269.7,320.,-50.1,-2.024,-1.788,255.4,0,7647.,0.,100000,102.991,3.296,3.575,3.376,3.84,335.333,2.269,2.42,326.,0.578,6.86,6.674,6.433,-999,7.861,9.102,5.222,-999.,-999.,7.793,-2.78,-1.622,-2.523,-23.487,0.497,0.57,0.696,0.74,0.486,0.609,0.683,0.736,0.411,,100.,0.,0.,0.,0.465,211.3,211.3
"2022-03-25",00:58,3.778,3.788,3.852,3.881,0.901,3.753,80.6,-5.678,-5.826,269.6,319.9,-50.2,-2.024,-1.788,255.6,0,7970.,0.,100000,102.9892,3.471,3.638,3.354,3.62,337.734,2.215,2.53,329.401,0.578,6.857,6.677,6.46,-999,7.868,9.098,5.222,-999.,-999.,7.793,-2.798,-1.643,-2.541,-23.5,0.497,0.57,0.695,0.74,0.487,0.609,0.683,0.736,0.411,,100.,0.,0.,0.,0.465,211.3,211.3
"2022-03-25",00:59,3.827,3.87,3.932,3.933,0.894,3.833,80.7,-5.646,-5.751,269.3,319.5,-50.1,-2.024,-1.786,255.8,0,7008.,0.,100000,102.9866,3.538,3.825,3.441,3.8,335.8,2.164,2.44,329.4,0.578,6.864,6.677,6.444,-999,7.861,9.101,5.212,-999.,-999.,7.806,-2.817,-1.662,-2.564,-23.511,0.497,0.571,0.695,0.74,0.487,0.609,0.683,0.736,0.411,,100.,0.,0.,0.,0.465,211.3,211.3
"2022-03-25",01:00,3.975,4.028,4.135,4.076,0.891,3.98,80.4,-5.549,-5.666,269.1,319.4,-50.2,-2.024,-1.786,255.8,0,6759.,0.,100000,102.9904,3.667,3.888,3.528,3.74,334.534,2.296,2.5,332.667,0.578,6.854,6.674,6.457,-999,7.865,9.112,5.199,-999.,-999.,7.793,-2.837,-1.682,-2.583,-23.522,0.497,0.57,0.696,0.74,0.487,0.609,0.683,0.736,0.411,,100.,0.,0.,0.,0.465,211.3,211.3
"2022-03-25",01:01,4.149,4.221,4.357,4.245,0.907,4.207,79.85,-5.42,-5.464,269.,319.9,-50.9,-2.024,-1.662,255.9,0,7324.,0.,100000,103.0021,3.854,4.012,3.511,3.94,334.8,2.409,2.6,334.134,0.578,6.857,6.674,6.44,-999,7.855,9.115,5.195,-999.,-999.,7.807,-2.855,-1.703,-2.599,-23.53,0.497,0.57,0.696,0.739,0.486,0.609,0.683,0.736,0.411,,100.,0.,0.,0.,0.465,211.3,211.3
"2022-03-25",01:02,4.306,4.392,4.535,4.421,0.944,4.38,79.31,-5.302,-5.326,269.1,319.7,-50.6,-2.024,-1.85,256.,0,7328.,0.,100000,103.0005,3.763,3.95,3.569,4.06,330.267,2.315,2.62,333.6,0.578,6.857,6.684,6.464,-999,7.858,9.108,5.189,-999.,-999.,7.817,-2.876,-1.723,-2.619,-23.538,0.497,0.57,0.696,0.74,0.487,0.609,0.683,0.736,0.411,,100.,0.,0.,0.,0.465,211.3,211.3
"2022-03-25",01:03,4.48,4.562,4.741,4.592,0.999,4.607,78.59,-5.173,-5.188,268.9,319.9,-51.0,-2.024,-1.974,256.1,0,7423.,0.,100000,103.0034,3.425,3.825,3.537,3.93,329.267,2.248,2.48,331.199,0.578,6.851,6.674,6.464,-999,7.845,9.115,5.186,-999.,-999.,7.813,-2.894,-1.744,-2.639,-23.544,0.497,0.571,0.696,0.74,0.486,0.609,0.683,0.736,0.411,,100.,0.,0.,0.,0.465,211.3,211.3
"2022-03-25",01:04,4.631,4.703,4.882,4.74,1.055,4.74,77.95,-5.076,-5.071,269.,320.1,-51.1,-1.879,-2.1,256.2,0,7765.,0.,100000,103.0054,3.683,3.825,3.263,3.9,330.333,1.966,2.29,330.665,0.578,6.847,6.677,6.454,-999,7.845,9.105,5.173,-999.,-999.,7.817,-2.914,-1.763,-2.658,-23.551,0.497,0.57,0.696,0.74,0.487,0.609,0.683,0.736,0.411,,100.,0.,0.,0.,0.465,211.3,211.3
"2022-03-25",01:05,4.71,4.795,4.989,4.824,1.097,4.833,77.53,-5.001,-4.911,268.9,319.8,-51.0,-1.735,-2.1,256.2,0,7132.,0.,100000,103.0048,3.6,3.763,3.153,3.64,327.868,1.659,2.06,329.663,0.578,6.847,6.674,6.464,-999,7.851,9.115,5.179,-999.,-999.,7.81,-2.933,-1.784,-2.679,-23.551,0.497,0.57,0.696,0.74,0.486,0.609,0.683,0.736,0.411,,100.,0.,0.,0.,0.465,211.3,211.3